sat.trackr.live / text

‹ back to catalog

STARLINK-6250

NORAD 57230 · 2023-094N

PAYLOAD ACTIVE UNKNOWN

§ Identity

Operator
Country
US
Launch date
2023-07-07
Launch site
AFWTR
Launch vehicle
Mass (kg)
RCS (m²)

Purposes: comms

External: N2YO · Heavens-Above · Gunter

§ Orbital elements

Epoch: 2026-05-25T04:52:04.101600Z

Period
94.27 min
Inclination
43.0053°
Eccentricity
0.0001590
Mean motion
15.27574656 rev/d
Perigee alt
482.0 km
Apogee alt
484.2 km
Semi-major
6,861.2 km
B*
1.1250e-5
RAAN
318.9177°
Arg perigee
275.7686°
Mean anomaly
84.2985°
Rev number
15,881

§ Raw data

STARLINK-62501 57230U 23094N   26145.20282525  .00000047  00000+0  11250-4 0  99922 57230  43.0053 318.9177 0001590 275.7686  84.2985 15.27574656158813

JSON: /api/v1/satellites/57230 · /tle

For live sub-satellite position, see the globe view (requires WebGL).

§ Visibility from observer

Set your observer location to see the next 7 days of passes ≥ 10°. The values pass through the URL so the page stays shareable.

No JS? Fill the form by hand. The geolocation button needs JavaScript.